This is the latest recevied weather packets stored in our database for station/object IK6ZNK-3. If no packets are shown the sender has not sent any weather packets the latest 10 day(s).
| Time | Temp. | Humidity | Pressure | Rain* | Wind** | Luminosity | Snow |
|---|---|---|---|---|---|---|---|
| 1778152807 | 19.44° C | 67% | 1006.5 hPa | 0 mm | - | - | - |
| 1778152206 | 19.44° C | 69% | 1006.6 hPa | 0 mm | - | - | - |
| 1778151608 | 19.44° C | 69% | 1006.6 hPa | 0 mm | - | - | - |
| 1778151007 | 19.44° C | 70% | 1006.7 hPa | 0 mm | - | - | - |
| 1778150407 | 18.89° C | 71% | 1006.7 hPa | 0 mm | - | - | - |
| 1778149809 | 18.33° C | 73% | 1006.7 hPa | 0 mm | - | - | - |
| 1778149207 | 18.89° C | 73% | 1006.6 hPa | 0 mm | - | - | - |
| 1778148607 | 18.89° C | 73% | 1006.3 hPa | 0 mm | - | - | - |
| 1778148008 | 18.89° C | 72% | 1006.4 hPa | 0 mm | - | - | - |
| 1778147407 | 19.44° C | 73% | 1006.5 hPa | 0 mm | - | - | - |
| 1778146807 | 20° C | 72% | 1006.6 hPa | 0 mm | - | - | - |
| 1778146207 | 19.44° C | 69% | 1006.4 hPa | 0 mm | - | - | - |
| 1778145607 | 19.44° C | 71% | 1006.4 hPa | 0 mm | - | - | - |
| 1778145007 | 19.44° C | 68% | 1006.4 hPa | 0 mm | - | - | - |
| 1778144407 | 20° C | 67% | 1006.3 hPa | 0 mm | - | - | - |
| 1778143808 | 20.56° C | 66% | 1006.2 hPa | 0 mm | - | - | - |
| 1778143207 | 20° C | 67% | 1006.3 hPa | 0 mm | - | - | - |
| 1778142608 | 20° C | 68% | 1006.7 hPa | 0 mm | - | - | - |
| 1778142007 | 20° C | 67% | 1006.2 hPa | 0 mm | - | - | - |
| 1778141407 | 18.33° C | 71% | 1006.3 hPa | 0 mm | - | - | - |
| 1778140808 | 18.89° C | 71% | 1006.4 hPa | 0 mm | - | - | - |
| 1778140207 | 18.33° C | 72% | 1006.3 hPa | 0 mm | - | - | - |
| 1778139607 | 17.78° C | 73% | 1006.3 hPa | 0 mm | - | - | - |
| 1778139008 | 17.78° C | 73% | 1006.4 hPa | 0 mm | - | - | - |
| 1778138407 | 17.78° C | 73% | 1006.3 hPa | 0 mm | - | - | - |
* Rain latest hour (hover to see other rain measurements)
** Current wind speed in m/s (hover to see current wind gust speed)